Location: Caltech
(34.1382°N, 118.1253°W)
Time: 23:53:17
(UTC-07:00)

HO-68 - Visible Passes

Search period start: 29 May 2016 00:00
Search period end: 08 June 2016 00:00
Orbit: 1193 x 1205 km, 100.1° (Epoch: 29 May)

Date Brightness Start Highest point End Pass type
(mag) Time Alt. Az. Time Alt. Az. Time Alt. Az.
29 May ? 21:48:43 10° SW 21:53:23 18° W 21:58:06 10° NW visible
30 May ? 21:30:36 10° SSW 21:36:18 26° W 21:42:02 10° NW visible
31 May ? 21:12:54 10° SSW 21:19:15 35° W 21:25:40 10° NW visible
01 Jun ? 20:55:28 10° S 21:02:15 47° W 21:09:06 10° NNW visible
02 Jun ? 20:38:14 10° S 20:45:17 63° WSW 20:52:23 10° NNW visible
03 Jun ? 20:21:13 10° SSE 20:28:22 83° WSW 20:35:33 10° NNW visible
03 Jun ? 22:15:27 10° WSW 22:16:53 11° W 22:18:21 10° WNW visible
04 Jun ? 21:55:39 10° SW 21:59:45 16° W 22:03:51 10° WNW visible
05 Jun ? 21:37:19 10° SW 21:42:38 22° W 21:48:00 10° NW visible
06 Jun ? 21:19:28 10° SSW 21:25:35 31° W 21:31:45 10° NW visible
07 Jun ? 21:01:55 10° SSW 21:08:33 41° W 21:15:15 10° NNW visible
